Time,TemperatureF,DewpointF,PressureIn,WindDirection,WindDirectionDegrees,WindSpeedMPH,WindSpeedGustMPH,Humidity,HourlyPrecipIn,Conditions,Clouds,dailyrainin,SolarRadiationWatts/m^2,SoftwareType,DateUTC
2013-07-23 00:00:00,69.2,68.0,29.87,ESE,115,0.0,0.0,96,0.09,,---,0.00,0.00,VWS V14.01,2013-07-23 04:00:00,
2013-07-23 00:01:00,69.2,67.7,29.87,ESE,115,0.0,0.0,95,0.08,,---,0.25,0.00,VWS V14.01,2013-07-23 04:01:00,
2013-07-23 00:02:00,69.2,68.0,29.87,ESE,115,0.0,0.0,96,0.09,,---,0.26,0.00,VWS V14.01,2013-07-23 04:02:00,
2013-07-23 00:07:00,69.2,68.0,29.87,ESE,115,0.0,0.0,96,0.09,,---,0.00,0.00,VWS V14.01,2013-07-23 04:07:00,
2013-07-23 00:13:00,69.1,67.9,29.86,ESE,115,0.0,0.0,96,0.09,,---,0.00,0.00,VWS V14.01,2013-07-23 04:13:00,
2013-07-23 00:18:00,69.1,67.9,29.86,ESE,115,0.0,1.0,96,0.09,,---,0.00,0.00,VWS V14.01,2013-07-23 04:18:00,
2013-07-23 00:23:00,69.0,67.8,29.86,ESE,115,0.0,1.0,96,0.09,,---,0.00,0.00,VWS V14.01,2013-07-23 04:23:00,
2013-07-23 00:28:00,69.0,67.8,29.86,ESE,115,0.0,1.0,96,0.09,,---,0.00,0.00,VWS V14.01,2013-07-23 04:28:00,
2013-07-23 00:30:00,68.9,67.7,29.86,ESE,115,0.0,1.0,96,0.09,,---,0.00,0.00,VWS V14.01,2013-07-23 04:30:00,
2013-07-23 00:33:00,68.9,67.7,29.86,ESE,115,0.0,1.0,96,0.09,,---,0.00,0.00,VWS V14.01,2013-07-23 04:33:00,
2013-07-23 00:38:00,68.9,67.7,29.86,ESE,115,0.0,0.0,96,0.05,,---,0.00,0.00,VWS V14.01,2013-07-23 04:38:00,
2013-07-23 00:43:00,68.8,67.6,29.86,ESE,115,0.0,0.0,96,0.05,,---,0.00,0.00,VWS V14.01,2013-07-23 04:43:00,
2013-07-23 00:48:00,68.8,67.6,29.86,ESE,115,0.0,0.0,96,0.06,,---,0.01,0.00,VWS V14.01,2013-07-23 04:48:00,
2013-07-23 00:53:00,68.7,67.5,29.86,ESE,115,0.0,0.0,96,0.06,,---,0.01,0.00,VWS V14.01,2013-07-23 04:53:00,
2013-07-23 00:58:00,68.6,67.4,29.86,ESE,115,0.0,0.0,96,0.06,,---,0.01,0.00,VWS V14.01,2013-07-23 04:58:00,
2013-07-23 01:00:00,68.6,67.4,29.86,ESE,115,0.0,0.0,96,0.06,,---,0.01,0.00,VWS V14.01,2013-07-23 05:00:00,
2013-07-23 01:03:00,68.6,67.4,29.86,ESE,115,0.0,0.0,96,0.01,,---,0.01,0.00,VWS V14.01,2013-07-23 05:03:00,
2013-07-23 01:09:00,68.5,67.3,29.87,ESE,115,0.0,0.0,96,0.01,,---,0.01,0.00,VWS V14.01,2013-07-23 05:09:00,
2013-07-23 01:14:00,68.5,67.3,29.86,ESE,115,0.0,0.0,96,0.01,,---,0.01,0.00,VWS V14.01,2013-07-23 05:14:00,
2013-07-23 01:19:00,68.5,67.3,29.86,ESE,115,0.0,0.0,96,0.01,,---,0.01,0.00,VWS V14.01,2013-07-23 05:19:00,
2013-07-23 01:24:00,68.4,67.2,29.86,ESE,115,0.0,0.0,96,0.01,,---,0.01,0.00,VWS V14.01,2013-07-23 05:24:00,
2013-07-23 01:29:00,68.4,67.2,29.86,ESE,115,0.0,0.0,96,0.01,,---,0.01,0.00,VWS V14.01,2013-07-23 05:29:00,
2013-07-23 01:30:00,68.3,67.1,29.86,ESE,115,0.0,0.0,96,0.03,,---,0.03,0.00,VWS V14.01,2013-07-23 05:30:00,
2013-07-23 01:34:00,68.3,67.1,29.86,ESE,115,0.0,0.0,96,0.03,,---,0.03,0.00,VWS V14.01,2013-07-23 05:34:00,
2013-07-23 01:39:00,68.3,67.1,29.86,ESE,115,0.0,0.0,96,0.04,,---,0.04,0.00,VWS V14.01,2013-07-23 05:39:00,
2013-07-23 01:44:00,68.3,67.1,29.86,WSW,241,0.0,0.0,96,0.04,,---,0.04,0.00,VWS V14.01,2013-07-23 05:44:00,
2013-07-23 01:49:00,68.1,66.9,29.86,WSW,241,0.0,2.0,96,0.04,,---,0.04,0.00,VWS V14.01,2013-07-23 05:49:00,
2013-07-23 01:54:00,68.0,66.8,29.85,WSW,241,0.0,2.0,96,0.04,,---,0.04,0.00,VWS V14.01,2013-07-23 05:54:00,
2013-07-23 02:00:00,67.9,66.7,29.85,WSW,241,0.0,2.0,96,0.04,,---,0.04,0.00,VWS V14.01,2013-07-23 06:00:00,
2013-07-23 02:05:00,67.8,66.6,29.85,WSW,241,0.0,0.0,96,0.03,,---,0.04,0.00,VWS V14.01,2013-07-23 06:05:00,
2013-07-23 02:10:00,67.7,66.5,29.84,WSW,241,0.0,0.0,96,0.03,,---,0.04,0.00,VWS V14.01,2013-07-23 06:10:00,
2013-07-23 02:15:00,67.4,66.2,29.85,WSW,241,0.0,0.0,96,0.03,,---,0.04,0.00,VWS V14.01,2013-07-23 06:15:00,
2013-07-23 02:20:00,67.3,66.1,29.84,WSW,241,0.0,0.0,96,0.03,,---,0.04,0.00,VWS V14.01,2013-07-23 06:20:00,
2013-07-23 02:25:00,67.2,66.0,29.84,WSW,241,0.0,0.0,96,0.03,,---,0.04,0.00,VWS V14.01,2013-07-23 06:25:00,
2013-07-23 02:30:00,67.0,65.8,29.84,WSW,241,0.0,0.0,96,0.03,,---,0.04,0.00,VWS V14.01,2013-07-23 06:30:00,
2013-07-23 02:35:00,66.8,65.6,29.84,WSW,241,0.0,0.0,96,0.01,,---,0.04,0.00,VWS V14.01,2013-07-23 06:35:00,
2013-07-23 02:40:00,66.7,65.5,29.84,WSW,241,0.0,0.0,96,0.01,,---,0.04,0.00,VWS V14.01,2013-07-23 06:40:00,
2013-07-23 02:45:00,66.6,65.4,29.84,WSW,241,0.0,0.0,96,0.01,,---,0.04,0.00,VWS V14.01,2013-07-23 06:45:00,
2013-07-23 02:50:00,66.5,65.3,29.84,WSW,241,2.0,2.0,96,0.01,,---,0.04,0.00,VWS V14.01,2013-07-23 06:50:00,
2013-07-23 02:56:00,66.4,65.2,29.84,WSW,242,0.0,2.0,96,0.01,,---,0.04,0.00,VWS V14.01,2013-07-23 06:56:00,
2013-07-23 03:00:00,66.2,65.0,29.84,WSW,245,0.0,2.0,96,0.01,,---,0.04,0.00,VWS V14.01,2013-07-23 07:00:00,
2013-07-23 03:06:00,66.1,64.9,29.84,WSW,245,0.0,1.0,96,0.00,,---,0.04,0.00,VWS V14.01,2013-07-23 07:06:00,
2013-07-23 03:11:00,65.9,64.7,29.84,WSW,246,0.0,3.0,96,0.00,,---,0.04,0.00,VWS V14.01,2013-07-23 07:11:00,
2013-07-23 03:16:00,65.8,64.6,29.83,WSW,247,0.0,3.0,96,0.00,,---,0.04,0.00,VWS V14.01,2013-07-23 07:16:00,
2013-07-23 03:21:00,65.7,64.5,29.83,WSW,250,0.0,3.0,96,0.00,,---,0.04,0.00,VWS V14.01,2013-07-23 07:21:00,
2013-07-23 03:26:00,65.6,64.4,29.83,WSW,250,0.0,3.0,96,0.00,,---,0.04,0.00,VWS V14.01,2013-07-23 07:26:00,
2013-07-23 03:30:00,65.5,64.3,29.82,WSW,250,0.0,3.0,96,0.00,,---,0.04,0.00,VWS V14.01,2013-07-23 07:30:00,
2013-07-23 03:31:00,65.5,64.3,29.83,WSW,250,0.0,3.0,96,0.00,,---,0.04,0.00,VWS V14.01,2013-07-23 07:31:00,
2013-07-23 03:36:00,65.5,64.3,29.82,WSW,250,0.0,0.0,96,0.00,,---,0.04,0.00,VWS V14.01,2013-07-23 07:36:00,
2013-07-23 03:41:00,65.4,64.2,29.82,WSW,250,0.0,0.0,96,0.00,,---,0.04,0.00,VWS V14.01,2013-07-23 07:41:00,
2013-07-23 03:46:00,65.3,64.1,29.82,WSW,250,0.0,0.0,96,0.00,,---,0.04,0.00,VWS V14.01,2013-07-23 07:46:00,
2013-07-23 03:51:00,65.3,64.1,29.82,WSW,250,0.0,0.0,96,0.00,,---,0.04,0.00,VWS V14.01,2013-07-23 07:51:00,
2013-07-23 03:57:00,65.3,64.1,29.83,WSW,250,0.0,0.0,96,0.00,,---,0.04,0.00,VWS V14.01,2013-07-23 07:57:00,
2013-07-23 04:00:00,65.2,64.0,29.83,WSW,250,0.0,0.0,96,0.00,,---,0.04,0.00,VWS V14.01,2013-07-23 08:00:00,
2013-07-23 04:02:00,65.2,64.0,29.83,WSW,250,0.0,0.0,96,0.00,,---,0.04,0.00,VWS V14.01,2013-07-23 08:02:00,
2013-07-23 04:07:00,65.2,64.0,29.83,WSW,250,0.0,0.0,96,0.00,,---,0.04,0.00,VWS V14.01,2013-07-23 08:07:00,
2013-07-23 04:12:00,65.2,64.0,29.83,WSW,250,0.0,0.0,96,0.00,,---,0.04,0.00,VWS V14.01,2013-07-23 08:12:00,
2013-07-23 04:17:00,65.2,64.0,29.83,WSW,250,0.0,0.0,96,0.00,,---,0.04,0.00,VWS V14.01,2013-07-23 08:17:00,
2013-07-23 04:22:00,65.2,64.0,29.83,WSW,250,0.0,0.0,96,0.00,,---,0.04,0.00,VWS V14.01,2013-07-23 08:22:00,
2013-07-23 04:27:00,65.2,64.0,29.83,WSW,250,0.0,0.0,96,0.00,,---,0.04,0.00,VWS V14.01,2013-07-23 08:27:00,
2013-07-23 04:30:00,65.2,64.0,29.83,WSW,250,0.0,0.0,96,0.00,,---,0.04,0.00,VWS V14.01,2013-07-23 08:30:00,
2013-07-23 04:32:00,65.2,64.0,29.83,WSW,250,0.0,0.0,96,0.00,,---,0.04,0.00,VWS V14.01,2013-07-23 08:32:00,
2013-07-23 04:38:00,65.2,64.0,29.83,WSW,250,0.0,0.0,96,0.00,,---,0.04,0.00,VWS V14.01,2013-07-23 08:38:00,
2013-07-23 04:43:00,65.3,64.1,29.83,WSW,250,0.0,0.0,96,0.00,,---,0.04,0.00,VWS V14.01,2013-07-23 08:43:00,
2013-07-23 04:48:00,65.3,64.1,29.83,WSW,250,0.0,0.0,96,0.00,,---,0.04,0.00,VWS V14.01,2013-07-23 08:48:00,
2013-07-23 04:53:00,65.2,64.0,29.83,WSW,250,0.0,0.0,96,0.00,,---,0.04,0.00,VWS V14.01,2013-07-23 08:53:00,
2013-07-23 04:58:00,65.2,64.0,29.84,WSW,250,0.0,0.0,96,0.00,,---,0.04,0.00,VWS V14.01,2013-07-23 08:58:00,
2013-07-23 05:00:00,65.3,64.4,29.84,WSW,250,0.0,0.0,97,0.00,,---,0.04,0.00,VWS V14.01,2013-07-23 09:00:00,
2013-07-23 05:03:00,65.3,64.4,29.84,WSW,250,0.0,0.0,97,0.00,,---,0.04,0.00,VWS V14.01,2013-07-23 09:03:00,
2013-07-23 05:08:00,65.3,64.4,29.84,WSW,250,0.0,0.0,97,0.00,,---,0.04,0.00,VWS V14.01,2013-07-23 09:08:00,
2013-07-23 05:13:00,65.2,64.3,29.84,WSW,250,0.0,0.0,97,0.00,,---,0.04,0.00,VWS V14.01,2013-07-23 09:13:00,
2013-07-23 05:18:00,65.3,64.4,29.84,WSW,250,0.0,0.0,97,0.00,,---,0.04,0.00,VWS V14.01,2013-07-23 09:18:00,
2013-07-23 05:23:00,65.3,64.4,29.84,WSW,250,0.0,0.0,97,0.00,,---,0.04,0.00,VWS V14.01,2013-07-23 09:23:00,
2013-07-23 05:29:00,65.3,64.4,29.84,WSW,250,0.0,0.0,97,0.00,,---,0.04,0.00,VWS V14.01,2013-07-23 09:29:00,
2013-07-23 05:30:00,65.3,64.4,29.83,WSW,250,0.0,0.0,97,0.00,,---,0.04,0.00,VWS V14.01,2013-07-23 09:30:00,
2013-07-23 05:34:00,65.3,64.4,29.83,WSW,250,0.0,0.0,97,0.00,,---,0.04,0.00,VWS V14.01,2013-07-23 09:34:00,
2013-07-23 05:39:00,65.3,64.4,29.83,WSW,250,0.0,0.0,97,0.00,,---,0.04,0.00,VWS V14.01,2013-07-23 09:39:00,
2013-07-23 05:44:00,65.4,64.5,29.83,WSW,250,0.0,0.0,97,0.00,,---,0.04,0.00,VWS V14.01,2013-07-23 09:44:00,
2013-07-23 05:49:00,65.4,64.5,29.83,WSW,250,0.0,0.0,97,0.00,,---,0.04,0.00,VWS V14.01,2013-07-23 09:49:00,
2013-07-23 06:00:00,65.4,64.5,29.84,North,0,0.0,0.0,97,0.00,,---,0.04,0.00,VWS V14.01,2013-07-23 10:00:00,
2013-07-23 06:30:00,65.4,64.5,29.85,North,0,0.0,0.0,97,0.00,,---,0.04,1.00,VWS V14.01,2013-07-23 10:30:00,
2013-07-23 07:00:00,65.3,64.4,29.85,North,0,0.0,0.0,97,0.00,,---,0.04,13.00,VWS V14.01,2013-07-23 11:00:00,
2013-07-23 07:30:00,65.8,64.9,29.86,North,0,0.0,0.0,97,0.00,,---,0.04,27.00,VWS V14.01,2013-07-23 11:30:00,
2013-07-23 08:00:00,66.6,65.7,29.86,WSW,248,0.0,3.0,97,0.00,,---,0.04,63.00,VWS V14.01,2013-07-23 12:00:00,
2013-07-23 08:30:00,67.3,66.4,29.86,NNW,338,0.0,3.0,97,0.00,,---,0.04,73.00,VWS V14.01,2013-07-23 12:30:00,
2013-07-23 09:00:00,68.0,66.8,29.85,SSW,202,0.0,1.0,96,0.00,,---,0.04,93.00,VWS V14.01,2013-07-23 13:00:00,
2013-07-23 09:30:00,69.5,67.1,29.85,West,270,0.0,4.0,92,0.00,,---,0.04,326.00,VWS V14.01,2013-07-23 13:30:00,
2013-07-23 10:00:00,71.8,66.7,29.86,West,270,1.0,6.0,84,0.00,,---,0.04,314.00,VWS V14.01,2013-07-23 14:00:00,
2013-07-23 10:30:00,74.5,68.3,29.85,WNW,292,0.0,5.0,81,0.00,,---,0.04,468.00,VWS V14.01,2013-07-23 14:30:00,
2013-07-23 11:00:00,74.3,67.4,29.87,West,270,2.0,7.0,79,0.00,,---,0.04,494.00,VWS V14.01,2013-07-23 15:00:00,
2013-07-23 11:30:00,75.9,67.8,29.87,West,270,1.0,7.0,76,0.00,,---,0.04,614.00,VWS V14.01,2013-07-23 15:30:00,
2013-07-23 12:00:00,79.6,67.7,29.87,WSW,248,1.0,5.0,67,0.00,,---,0.04,863.00,VWS V14.01,2013-07-23 16:00:00,
2013-07-23 12:30:00,80.8,68.4,29.87,West,270,0.0,5.0,66,0.00,,---,0.04,955.00,VWS V14.01,2013-07-23 16:30:00,
2013-07-23 13:00:00,80.6,67.3,29.87,West,270,1.0,12.0,64,0.00,,---,0.04,776.00,VWS V14.01,2013-07-23 17:00:00,
2013-07-23 13:30:00,80.9,66.7,29.87,West,270,1.0,9.0,62,0.00,,---,0.04,708.00,VWS V14.01,2013-07-23 17:30:00,
2013-07-23 14:00:00,81.8,66.6,29.86,WSW,248,1.0,7.0,60,0.00,,---,0.04,936.00,VWS V14.01,2013-07-23 18:00:00,
2013-07-23 14:30:00,83.1,66.8,29.85,West,270,1.0,6.0,58,0.00,,---,0.04,996.00,VWS V14.01,2013-07-23 18:30:00,
2013-07-23 15:00:00,82.8,67.5,29.84,WSW,248,1.0,7.0,60,0.00,,---,0.04,976.00,VWS V14.01,2013-07-23 19:00:00,
2013-07-23 15:30:00,83.1,66.3,29.83,WSW,248,1.0,6.0,57,0.00,,---,0.04,739.00,VWS V14.01,2013-07-23 19:30:00,
2013-07-23 16:00:00,82.5,66.7,29.82,West,270,1.0,6.0,59,0.00,,---,0.04,744.00,VWS V14.01,2013-07-23 20:00:00,
2013-07-23 16:30:00,82.9,67.1,29.82,NW,315,1.0,5.0,59,0.00,,---,0.04,748.00,VWS V14.01,2013-07-23 20:30:00,
2013-07-23 17:00:00,82.5,66.7,29.82,West,270,1.0,6.0,59,0.00,,---,0.04,744.00,VWS V14.01,2013-07-23 21:00:00,
2013-07-23 17:08:00,83.2,67.4,29.81,West,279,2.0,2.0,59,0.00,,---,0.04,684.00,VWS V14.01,2013-07-23 21:08:00,
2013-07-23 17:13:00,83.3,67.5,29.80,West,274,0.0,5.0,59,0.00,,---,0.04,624.00,VWS V14.01,2013-07-23 21:13:00,
2013-07-23 17:18:00,83.1,66.3,29.80,WSW,246,4.0,5.0,57,0.00,,---,0.04,557.00,VWS V14.01,2013-07-23 21:18:00,
2013-07-23 17:23:00,82.8,67.5,29.80,WNW,298,0.0,5.0,60,0.00,,---,0.04,508.00,VWS V14.01,2013-07-23 21:23:00,
2013-07-23 17:28:00,82.6,67.3,29.81,NW,313,0.0,5.0,60,0.00,,---,0.04,538.00,VWS V14.01,2013-07-23 21:28:00,
2013-07-23 17:30:00,82.6,66.8,29.80,West,278,0.0,5.0,59,0.00,,---,0.04,111.00,VWS V14.01,2013-07-23 21:30:00,
2013-07-23 17:33:00,82.6,66.8,29.80,West,278,0.0,5.0,59,0.00,,---,0.04,111.00,VWS V14.01,2013-07-23 21:33:00,
2013-07-23 17:38:00,82.6,67.3,29.80,West,280,0.0,3.0,60,0.00,,---,0.04,199.00,VWS V14.01,2013-07-23 21:38:00,
2013-07-23 17:43:00,82.4,67.1,29.80,WNW,302,0.0,3.0,60,0.00,,---,0.04,97.00,VWS V14.01,2013-07-23 21:43:00,
2013-07-23 17:48:00,81.9,66.2,29.80,West,259,4.0,6.0,59,0.00,,---,0.04,74.00,VWS V14.01,2013-07-23 21:48:00,
2013-07-23 17:54:00,81.5,66.8,29.79,WNW,292,0.0,6.0,61,0.00,,---,0.04,74.00,VWS V14.01,2013-07-23 21:54:00,
2013-07-23 17:59:00,81.1,67.3,29.79,West,259,0.0,6.0,63,0.00,,---,0.04,128.00,VWS V14.01,2013-07-23 21:59:00,
2013-07-23 18:00:00,80.9,67.1,29.80,WSW,255,0.0,6.0,63,0.00,,---,0.04,62.00,VWS V14.01,2013-07-23 22:00:00,
2013-07-23 18:04:00,80.8,67.0,29.80,WSW,255,0.0,0.0,63,0.00,,---,0.04,62.00,VWS V14.01,2013-07-23 22:04:00,
2013-07-23 18:10:00,80.5,66.3,29.79,WNW,297,0.0,1.0,62,0.00,,---,0.04,62.00,VWS V14.01,2013-07-23 22:10:00,
2013-07-23 18:15:00,80.2,66.5,29.80,WNW,296,0.0,6.0,63,0.00,,---,0.04,142.00,VWS V14.01,2013-07-23 22:15:00,
2013-07-23 18:20:00,80.0,67.6,29.80,WNW,295,0.0,6.0,66,0.00,,---,0.04,56.00,VWS V14.01,2013-07-23 22:20:00,
2013-07-23 18:25:00,79.7,66.9,29.79,WNW,295,0.0,6.0,65,0.00,,---,0.04,62.00,VWS V14.01,2013-07-23 22:25:00,
2013-07-23 18:30:00,79.5,66.7,29.79,West,260,0.0,6.0,65,0.00,,---,0.04,53.00,VWS V14.01,2013-07-23 22:30:00,
2013-07-23 18:35:00,79.2,66.4,29.79,WSW,240,4.0,4.0,65,0.00,,---,0.04,47.00,VWS V14.01,2013-07-23 22:35:00,
2013-07-23 18:40:00,79.0,66.2,29.79,West,281,3.0,4.0,65,0.00,,---,0.04,53.00,VWS V14.01,2013-07-23 22:40:00,
2013-07-23 18:45:00,78.7,66.4,29.79,West,277,0.0,4.0,66,0.00,,---,0.04,47.00,VWS V14.01,2013-07-23 22:45:00,
2013-07-23 18:50:00,78.6,66.7,29.79,NW,304,0.0,4.0,67,0.00,,---,0.04,44.00,VWS V14.01,2013-07-23 22:50:00,
2013-07-23 18:56:00,78.5,67.1,29.80,NW,304,0.0,4.0,68,0.00,,---,0.04,44.00,VWS V14.01,2013-07-23 22:56:00,
2013-07-23 19:00:00,78.3,67.3,29.80,West,267,0.0,4.0,69,0.00,,---,0.04,40.00,VWS V14.01,2013-07-23 23:00:00,
2013-07-23 19:01:00,78.4,67.0,29.80,WSW,246,0.0,4.0,68,0.00,,---,0.04,40.00,VWS V14.01,2013-07-23 23:01:00,
2013-07-23 19:06:00,78.3,67.3,29.80,West,271,0.0,3.0,69,0.00,,---,0.04,39.00,VWS V14.01,2013-07-23 23:06:00,
2013-07-23 19:11:00,78.3,66.9,29.80,West,271,0.0,3.0,68,0.00,,---,0.04,33.00,VWS V14.01,2013-07-23 23:11:00,
2013-07-23 19:16:00,78.2,67.2,29.81,West,271,0.0,3.0,69,0.00,,---,0.04,26.00,VWS V14.01,2013-07-23 23:16:00,
2013-07-23 19:21:00,78.0,67.0,29.81,West,271,0.0,3.0,69,0.00,,---,0.04,32.00,VWS V14.01,2013-07-23 23:21:00,
2013-07-23 19:26:00,77.8,67.2,29.81,West,271,0.0,3.0,70,0.00,,---,0.04,32.00,VWS V14.01,2013-07-23 23:26:00,
2013-07-23 19:30:00,77.6,67.1,29.81,WNW,300,0.0,3.0,70,0.00,,---,0.04,33.00,VWS V14.01,2013-07-23 23:30:00,
2013-07-23 19:31:00,77.7,66.7,29.81,WNW,300,0.0,3.0,69,0.00,,---,0.04,32.00,VWS V14.01,2013-07-23 23:31:00,
2013-07-23 19:37:00,77.6,67.1,29.81,WNW,300,0.0,0.0,70,0.00,,---,0.04,32.00,VWS V14.01,2013-07-23 23:37:00,
2013-07-23 19:42:00,77.4,66.9,29.81,WNW,300,0.0,0.0,70,0.00,,---,0.04,28.00,VWS V14.01,2013-07-23 23:42:00,
2013-07-23 19:47:00,77.3,67.2,29.81,WNW,300,0.0,0.0,71,0.00,,---,0.04,25.00,VWS V14.01,2013-07-23 23:47:00,
2013-07-23 19:52:00,77.2,67.1,29.81,WNW,300,0.0,1.0,71,0.00,,---,0.04,23.00,VWS V14.01,2013-07-23 23:52:00,
2013-07-23 19:57:00,77.0,66.9,29.81,WNW,300,0.0,1.0,71,0.00,,---,0.04,21.00,VWS V14.01,2013-07-23 23:57:00,
2013-07-23 20:00:00,76.8,67.1,29.81,WSW,238,0.0,1.0,72,0.00,,---,0.04,16.00,VWS V14.01,2013-07-24 00:00:00,
2013-07-23 20:03:00,76.8,67.1,29.81,WSW,238,0.0,1.0,72,0.00,,---,0.04,16.00,VWS V14.01,2013-07-24 00:03:00,
2013-07-23 20:09:00,76.7,67.4,29.81,WSW,238,0.0,0.0,73,0.00,,---,0.04,14.00,VWS V14.01,2013-07-24 00:09:00,
2013-07-23 20:14:00,76.5,67.2,29.81,WSW,238,0.0,0.0,73,0.00,,---,0.04,12.00,VWS V14.01,2013-07-24 00:14:00,
2013-07-23 20:19:00,76.3,67.8,29.82,WSW,238,0.0,0.0,75,0.00,,---,0.04,9.00,VWS V14.01,2013-07-24 00:19:00,
2013-07-23 20:24:00,76.2,67.7,29.82,WSW,238,0.0,0.0,75,0.00,,---,0.04,7.00,VWS V14.01,2013-07-24 00:24:00,
2013-07-23 20:30:00,76.0,67.9,29.82,WSW,238,0.0,0.0,76,0.00,,---,0.04,0.00,VWS V14.01,2013-07-24 00:30:00,
2013-07-23 20:35:00,75.7,68.0,29.82,WSW,238,0.0,0.0,77,0.00,,---,0.04,0.00,VWS V14.01,2013-07-24 00:35:00,
2013-07-23 20:40:00,75.4,68.1,29.81,WSW,238,0.0,0.0,78,0.00,,---,0.04,0.00,VWS V14.01,2013-07-24 00:40:00,
2013-07-23 20:45:00,74.9,67.6,29.81,WSW,238,0.0,0.0,78,0.00,,---,0.04,0.00,VWS V14.01,2013-07-24 00:45:00,
2013-07-23 20:50:00,74.3,67.4,29.82,WSW,238,0.0,0.0,79,0.00,,---,0.04,0.00,VWS V14.01,2013-07-24 00:50:00,
2013-07-23 20:55:00,73.8,67.2,29.82,WSW,238,0.0,0.0,80,0.00,,---,0.04,0.00,VWS V14.01,2013-07-24 00:55:00,
2013-07-23 21:00:00,73.5,67.0,29.82,WSW,238,0.0,0.0,80,0.00,,---,0.04,0.00,VWS V14.01,2013-07-24 01:00:00,
2013-07-23 21:05:00,73.1,66.9,29.82,WSW,238,0.0,0.0,81,0.00,,---,0.04,0.00,VWS V14.01,2013-07-24 01:05:00,
2013-07-23 21:10:00,72.8,66.6,29.82,WSW,238,0.0,0.0,81,0.00,,---,0.04,0.00,VWS V14.01,2013-07-24 01:10:00,
2013-07-23 21:15:00,72.5,67.1,29.82,WSW,238,0.0,0.0,83,0.00,,---,0.04,0.00,VWS V14.01,2013-07-24 01:15:00,
2013-07-23 21:21:00,72.0,66.6,29.82,WSW,238,0.0,0.0,83,0.00,,---,0.04,0.00,VWS V14.01,2013-07-24 01:21:00,
2013-07-23 21:26:00,71.5,66.4,29.83,WSW,238,0.0,0.0,84,0.00,,---,0.04,0.00,VWS V14.01,2013-07-24 01:26:00,
2013-07-23 21:30:00,75.8,68.1,29.82,WSW,238,0.0,0.0,77,0.00,,---,0.04,0.00,VWS V14.01,2013-07-24 01:30:00,
2013-07-23 21:36:00,71.1,66.4,29.82,WSW,238,0.0,0.0,85,0.00,,---,0.04,0.00,VWS V14.01,2013-07-24 01:36:00,
2013-07-23 21:41:00,70.9,66.5,29.83,WSW,238,0.0,0.0,86,0.00,,---,0.04,0.00,VWS V14.01,2013-07-24 01:41:00,
2013-07-23 21:47:00,70.7,66.3,29.83,WSW,238,0.0,0.0,86,0.00,,---,0.04,0.00,VWS V14.01,2013-07-24 01:47:00,
2013-07-23 21:52:00,70.5,66.4,29.83,WSW,238,0.0,0.0,87,0.00,,---,0.04,0.00,VWS V14.01,2013-07-24 01:52:00,
2013-07-23 22:00:00,70.1,66.1,29.83,WSW,238,0.0,0.0,87,0.00,,---,0.04,0.00,VWS V14.01,2013-07-24 02:00:00,
2013-07-23 22:02:00,70.1,66.1,29.83,WSW,238,0.0,0.0,87,0.00,,---,0.04,0.00,VWS V14.01,2013-07-24 02:02:00,
2013-07-23 22:07:00,70.0,66.0,29.83,WSW,238,0.0,0.0,87,0.00,,---,0.04,0.00,VWS V14.01,2013-07-24 02:07:00,
2013-07-23 22:12:00,69.9,66.2,29.84,WSW,238,0.0,0.0,88,0.00,,---,0.04,0.00,VWS V14.01,2013-07-24 02:12:00,
2013-07-23 22:18:00,69.7,66.0,29.84,WSW,238,0.0,0.0,88,0.00,,---,0.04,0.00,VWS V14.01,2013-07-24 02:18:00,
2013-07-23 22:23:00,69.6,65.9,29.84,WSW,238,0.0,0.0,88,0.00,,---,0.04,0.00,VWS V14.01,2013-07-24 02:23:00,
2013-07-23 22:28:00,69.5,65.8,29.84,WSW,238,0.0,0.0,88,0.00,,---,0.04,0.00,VWS V14.01,2013-07-24 02:28:00,
2013-07-23 22:30:00,69.4,66.0,29.84,WSW,238,0.0,0.0,89,0.00,,---,0.04,0.00,VWS V14.01,2013-07-24 02:30:00,
2013-07-23 22:33:00,69.4,66.0,29.84,WSW,238,0.0,0.0,89,0.00,,---,0.04,0.00,VWS V14.01,2013-07-24 02:33:00,
2013-07-23 22:38:00,69.3,65.9,29.85,WSW,238,0.0,0.0,89,0.00,,---,0.04,0.00,VWS V14.01,2013-07-24 02:38:00,
2013-07-23 22:43:00,69.2,65.8,29.85,WSW,238,0.0,0.0,89,0.00,,---,0.04,0.00,VWS V14.01,2013-07-24 02:43:00,
2013-07-23 22:48:00,69.1,66.1,29.85,WSW,238,0.0,0.0,90,0.00,,---,0.04,0.00,VWS V14.01,2013-07-24 02:48:00,
2013-07-23 22:55:00,69.0,65.9,29.85,WSW,238,0.0,0.0,90,0.00,,---,0.04,0.00,VWS V14.01,2013-07-24 02:55:00,
2013-07-23 23:00:00,68.9,65.8,29.85,WSW,238,0.0,0.0,90,0.00,,---,0.04,0.00,VWS V14.01,2013-07-24 03:00:00,
2013-07-23 23:05:00,68.9,65.8,29.84,WSW,238,0.0,0.0,90,0.00,,---,0.04,0.00,VWS V14.01,2013-07-24 03:05:00,
2013-07-23 23:11:00,68.9,65.8,29.84,WSW,238,0.0,0.0,90,0.00,,---,0.04,0.00,VWS V14.01,2013-07-24 03:11:00,
2013-07-23 23:16:00,68.9,65.5,29.83,WSW,238,0.0,0.0,89,0.00,,---,0.04,0.00,VWS V14.01,2013-07-24 03:16:00,
2013-07-23 23:21:00,69.0,65.9,29.83,WSW,238,0.0,0.0,90,0.00,,---,0.04,0.00,VWS V14.01,2013-07-24 03:21:00,
2013-07-23 23:26:00,69.0,65.9,29.84,WSW,238,0.0,0.0,90,0.00,,---,0.04,0.00,VWS V14.01,2013-07-24 03:26:00,
2013-07-23 23:30:00,68.9,65.8,29.84,WSW,238,0.0,0.0,90,0.00,,---,0.04,0.00,VWS V14.01,2013-07-24 03:30:00,
2013-07-23 23:31:00,68.9,65.8,29.84,WSW,238,0.0,0.0,90,0.00,,---,0.04,0.00,VWS V14.01,2013-07-24 03:31:00,
2013-07-23 23:37:00,68.8,65.8,29.85,WSW,238,0.0,0.0,90,0.00,,---,0.04,0.00,VWS V14.01,2013-07-24 03:37:00,
2013-07-23 23:42:00,68.7,65.3,29.85,WSW,238,0.0,0.0,89,0.00,,---,0.04,0.00,VWS V14.01,2013-07-24 03:42:00,
2013-07-23 23:47:00,68.6,65.6,29.85,WSW,238,0.0,0.0,90,0.00,,---,0.04,0.00,VWS V14.01,2013-07-24 03:47:00,
2013-07-23 23:52:00,68.5,65.5,29.85,WSW,238,0.0,0.0,90,0.00,,---,0.04,0.00,VWS V14.01,2013-07-24 03:52:00,
2013-07-23 23:57:00,68.3,65.3,29.85,WSW,238,0.0,0.0,90,0.00,,---,0.04,0.00,VWS V14.01,2013-07-24 03:57:00,